sat.trackr.live / text

‹ back to catalog

STARLINK-38066

NORAD 69758 · 2026-150V

PAYLOAD ACTIVE UNKNOWN

§ Identity

Operator
Country
US
Launch date
2026-07-02
Launch site
AFWTR
Launch vehicle
Mass (kg)
RCS (m²)

Purposes: comms

External: N2YO · Heavens-Above · Gunter

§ Orbital elements

Epoch: 2026-09-19T18:52:52.236480Z

Period
93.91 min
Inclination
97.2849°
Eccentricity
0.0001408
Mean motion
15.33437459 rev/d
Perigee alt
464.6 km
Apogee alt
466.5 km
Semi-major
6,843.7 km
B*
3.7224e-4
RAAN
101.6800°
Arg perigee
90.7654°
Mean anomaly
269.3750°
Rev number
1,362

§ Raw data

STARLINK-380661 69758U 26150V   26262.78671570  .00011959  00000+0  37224-3 0  99932 69758  97.2849 101.6800 0001408  90.7654 269.3750 15.33437459 13624

JSON: /api/v1/satellites/69758 · /tle

For live sub-satellite position, see the globe view (requires WebGL).

§ Visibility from observer

Set your observer location to see the next 7 days of passes ≥ 10°. The values pass through the URL so the page stays shareable.

No JS? Fill the form by hand. The geolocation button needs JavaScript.